Regional Weather Roundup
Issued by NWS Boston, MA

Current Version | Previous Version | Graphics & Text | Print | Product List | Glossary On
Versions: 1 2 3 4 5 6 7 8 9 10 11 12 13 14 15 16 17 18 19 20 21 22 23 24 25 26 27 28 29 30 31 32 33 34 35 36 37 38 39 40 41 42 43 44 45 46 47 48 49 50
000
ASUS41 KBOX 171610
RWRBOX

REGIONAL WEATHER ROUNDUP
NATIONAL WEATHER SERVICE BOSTON/NORTON MA
1100 AM EST SUN FEB 17 2019

NOTE:  "FAIR" INDICATES FEW OR NO CLOUDS BELOW 12,000 FEET WITH NO
SIGNIFICANT WEATHER AND/OR OBSTRUCTIONS TO VISIBILITY.

MAZALL-171700-
EASTERN MASSACHUSETTS

CITY           SKY/WX    TMP DP  RH WIND       PRES   REMARKS
BOSTON         FAIR      31   7  36 VRB3      30.14
BEVERLY        FAIR      29   6  38 NW10      30.13S WCI  20
LAWRENCE       FAIR      27   7  42 W5        30.14F WCI  22
BEDFORD        FAIR      30   8  39 NW8G16    30.13S WCI  22
BLUE HILL        N/A     28   7  41 NW8       30.09S WCI  20
NORWOOD        FAIR      33   8  35 N6        30.14S WCI  28
MARSHFIELD     FAIR      30   9  40 VRB6G14   30.14R WCI  24
PLYMOUTH       FAIR      32   7  35 N10       30.13F WCI  24
TAUNTON        FAIR      33   7  33 VRB5      30.13F WCI  29
NEW BEDFORD    FAIR      33  10  38 NE6       30.12F WCI  28
$$

MAZALL-171700-
CAPE COD AND THE ISLANDS

CITY           SKY/WX    TMP DP  RH WIND       PRES   REMARKS
FALMOUTH       FAIR      32  12  43 NE8       30.13S WCI  25
HYANNIS        FAIR      32  16  51 NW10      30.12S WCI  24
CHATHAM        FAIR      33  18  53 NW5       30.13F WCI  29
PROVINCETOWN   FAIR      29  19  66 NW8       30.15R WCI  21
NANTUCKET      FAIR      32  19  58 N8        30.12F WCI  25
MARTHAS VNYRD  FAIR      33  12  41 VRB3      30.12F
$$

MAZALL-171700-
CENTRAL AND WESTERN MASSACHUSETTS

CITY           SKY/WX    TMP DP  RH WIND       PRES   REMARKS
WORCESTER      FAIR      25   9  50 NW5       30.07F WCI  19
FITCHBURG      FAIR      29   6  38 VRB5      30.13S WCI  24
ORANGE         FAIR      27   6  41 NW12      30.12F WCI  17
SPRINGFIELD    MOSUNNY   26   9  47 NW6       30.12F WCI  20
WESTFIELD      FAIR      29  10  45 CALM      30.13F
NORTH ADAMS    FAIR      24  10  55 W8        30.12F WCI  15
PITTSFIELD     FAIR      25   8  48 VRB5      30.05F WCI  19
$$

RIZALL-171700-
RHODE ISLAND

CITY           SKY/WX    TMP DP  RH WIND       PRES   REMARKS
PROVIDENCE     FAIR      33  12  41 N8        30.13F WCI  26
NEWPORT        FAIR      31  12  45 NW9       30.13F WCI  23
BLOCK ISLAND   FAIR      30  14  51 VRB3        N/A
SMITHFIELD     FAIR      29  12  49 N8        30.11F WCI  21
WESTERLY       FAIR      34  12  40 VRB3      30.14F
$$

CTZALL-171700-
CONNECTICUT

CITY           SKY/WX    TMP DP  RH WIND       PRES   REMARKS
BRADLEY INTL   FAIR      31  11  43 NE5       30.14F WCI  26
HARTFORD       FAIR      31  11  43 N8        30.15F WCI  23
BRIDGEPORT     FAIR      33  13  43 NE8       30.12F WCI  26
DANBURY        FAIR      29  13  51 N8        30.11F WCI  21
GROTON         FAIR      32  14  47 S6        30.14F WCI  26
NEW HAVEN      FAIR      33  11  39 N10       30.13F WCI  25
CHESTER        FAIR      34  10  37 VRB3      30.12F
MERIDEN        FAIR      32  10  40 N8        30.14F WCI  25
WILLIMANTIC    FAIR      31  12  45 VRB3      30.14S
OXFORD         FAIR      28  14  55 N5        30.09F WCI  23
$$

MEZ002-015-021-024-NHZ003-005-008-011-012-014-VTZ005-008-171700-
NORTHERN NEW ENGLAND

CITY           SKY/WX    TMP DP  RH WIND       PRES   REMARKS
PORTLAND ME    FAIR      26   5  40 VRB6      30.13F WCI  19
BANGOR ME      FAIR      20   3  48 NW8       30.08F WCI  10
CONCORD NH     FAIR      24   5  44 W6        30.12S WCI  17
MANCHESTER NH  FAIR      27   4  37 NW6       30.11F WCI  20
NASHUA NH      FAIR      27   7  42 NW7       30.14S WCI  19
PORTSMOUTH NH  MOSUNNY   27   5  38 W3        30.11F
JAFFREY NH     FAIR      26   3  37 NW7       30.07S WCI  18
KEENE NH       FLURRIES  23   8  52 NW8       30.12F WCI  14
BURLINGTON VT  FAIR      17   2  51 VRB3      30.19F
MT. WASHINGTON MOSUNNY    9 -15  33 NW22        N/A  WCI -11
$$

NYZ052-076-171700-
EASTERN NEW YORK

CITY           SKY/WX    TMP DP  RH WIND       PRES   REMARKS
ALBANY         FAIR      24   8  50 VRB3      30.17F
NEW YORK CITY  FAIR      31  14  49 NE6       30.15R WCI  25
$$

ANZALL-171700-
MARINE OBSERVATIONS

STATION/POSITION TIME  TEMP    WIND        PRES    VSBY  WAVE
                       AIR SEA DIR/SP/G                  HT/PER
                 (UTC) (F)     (DEG/KT/KT) (MB)    (MI)  (FT/S)
BOSTON BUOY      1550   26 39  300/  4/  6 1020.4S         2/10
BUZZARDS BAY     1500   27     360/  3/  4 1021.6R
NANTUCKET SOUND  1550   29 35  350/ 10/ 14 1020.4F         1/ 3
MASS BAY-STELLWA 1504   25 39  340/ 10/ 12 1019.7R  1 7/8  3/ 8
ISLE OF SHOALS   1500   23     320/  6/  8 1020.3R
S OF BLOCK IS    1600      42                N/A           3/ 4
$$

......................KEY.........................
  SKY/WX - SKY CONDITION/PRESENT WEATHER
  TMP    - TEMPERATURE IN FAHRENHEIT
  DWPT   - DEWPOINT IN FAHRENHEIT
  RH     - RELATIVE HUMIDITY IN PERCENT
  WIND   - DIRECTION AND SPEED IN MPH
  PRES   - MEAN SEA LEVEL PRESSURE IN INCHES OF HG
  WCI    - WIND CHILL INDEX
  VSB    - VISIBILITY IN MILES
  HX     - HEAT INDEX
  TC     - TEMPERATURE IN CELSIUS
  VRB    - VARIABLE WIND DIRECTION
  N/A    - NOT AVAILABLE



USA.gov is the U.S. government's official web portal to all federal, state and local government web resources and services.